Index of /20260503/WXO-DD/model_caps/3km/00/002
Name Last modified Size Description
Parent Directory -
20260503T00Z_MSC_CAPS_AbsoluteVorticity_IsbL-0250_RLatLon0.03_PT002H.grib2 2026-05-03 06:06 1.1M
20260503T00Z_MSC_CAPS_AbsoluteVorticity_IsbL-0500_RLatLon0.03_PT002H.grib2 2026-05-03 06:06 1.1M
20260503T00Z_MSC_CAPS_AbsoluteVorticity_IsbL-0700_RLatLon0.03_PT002H.grib2 2026-05-03 06:06 1.0M
20260503T00Z_MSC_CAPS_AbsoluteVorticity_IsbL-0850_RLatLon0.03_PT002H.grib2 2026-05-03 06:06 1.2M
20260503T00Z_MSC_CAPS_AbsoluteVorticity_IsbL-1000_RLatLon0.03_PT002H.grib2 2026-05-03 06:06 1.3M
20260503T00Z_MSC_CAPS_AirDensity_AGL-120m_RLatLon0.03_PT002H.grib2 2026-05-03 06:06 1.4M
20260503T00Z_MSC_CAPS_AirDensity_AGL-40m_RLatLon0.03_PT002H.grib2 2026-05-03 06:06 1.4M
20260503T00Z_MSC_CAPS_AirDensity_AGL-80m_RLatLon0.03_PT002H.grib2 2026-05-03 06:06 1.4M
20260503T00Z_MSC_CAPS_AirTemp_AGL-120m_RLatLon0.03_PT002H.grib2 2026-05-03 06:06 1.4M
20260503T00Z_MSC_CAPS_AirTemp_AGL-2m_RLatLon0.03_PT002H.grib2 2026-05-03 06:06 1.7M
20260503T00Z_MSC_CAPS_AirTemp_AGL-40m_RLatLon0.03_PT002H.grib2 2026-05-03 06:06 1.4M
20260503T00Z_MSC_CAPS_AirTemp_AGL-80m_RLatLon0.03_PT002H.grib2 2026-05-03 06:06 1.4M
20260503T00Z_MSC_CAPS_AirTemp_IsbL-0050_RLatLon0.03_PT002H.grib2 2026-05-03 06:06 706K
20260503T00Z_MSC_CAPS_AirTemp_IsbL-0100_RLatLon0.03_PT002H.grib2 2026-05-03 06:06 959K
20260503T00Z_MSC_CAPS_AirTemp_IsbL-0150_RLatLon0.03_PT002H.grib2 2026-05-03 06:06 748K
20260503T00Z_MSC_CAPS_AirTemp_IsbL-0175_RLatLon0.03_PT002H.grib2 2026-05-03 06:06 762K
20260503T00Z_MSC_CAPS_AirTemp_IsbL-0200_RLatLon0.03_PT002H.grib2 2026-05-03 06:06 778K
20260503T00Z_MSC_CAPS_AirTemp_IsbL-0225_RLatLon0.03_PT002H.grib2 2026-05-03 06:06 780K
20260503T00Z_MSC_CAPS_AirTemp_IsbL-0250_RLatLon0.03_PT002H.grib2 2026-05-03 06:06 1.0M
20260503T00Z_MSC_CAPS_AirTemp_IsbL-0275_RLatLon0.03_PT002H.grib2 2026-05-03 06:06 1.0M
20260503T00Z_MSC_CAPS_AirTemp_IsbL-0300_RLatLon0.03_PT002H.grib2 2026-05-03 06:06 1.0M
20260503T00Z_MSC_CAPS_AirTemp_IsbL-0350_RLatLon0.03_PT002H.grib2 2026-05-03 06:06 751K
20260503T00Z_MSC_CAPS_AirTemp_IsbL-0400_RLatLon0.03_PT002H.grib2 2026-05-03 06:06 754K
20260503T00Z_MSC_CAPS_AirTemp_IsbL-0450_RLatLon0.03_PT002H.grib2 2026-05-03 06:06 766K
20260503T00Z_MSC_CAPS_AirTemp_IsbL-0500_RLatLon0.03_PT002H.grib2 2026-05-03 06:06 780K
20260503T00Z_MSC_CAPS_AirTemp_IsbL-0550_RLatLon0.03_PT002H.grib2 2026-05-03 06:06 948K
20260503T00Z_MSC_CAPS_AirTemp_IsbL-0600_RLatLon0.03_PT002H.grib2 2026-05-03 06:06 964K
20260503T00Z_MSC_CAPS_AirTemp_IsbL-0650_RLatLon0.03_PT002H.grib2 2026-05-03 06:06 1.0M
20260503T00Z_MSC_CAPS_AirTemp_IsbL-0700_RLatLon0.03_PT002H.grib2 2026-05-03 06:06 1.0M
20260503T00Z_MSC_CAPS_AirTemp_IsbL-0750_RLatLon0.03_PT002H.grib2 2026-05-03 06:06 1.0M
20260503T00Z_MSC_CAPS_AirTemp_IsbL-0800_RLatLon0.03_PT002H.grib2 2026-05-03 06:06 1.0M
20260503T00Z_MSC_CAPS_AirTemp_IsbL-0850_RLatLon0.03_PT002H.grib2 2026-05-03 06:06 1.0M
20260503T00Z_MSC_CAPS_AirTemp_IsbL-0875_RLatLon0.03_PT002H.grib2 2026-05-03 06:06 1.0M
20260503T00Z_MSC_CAPS_AirTemp_IsbL-0900_RLatLon0.03_PT002H.grib2 2026-05-03 06:06 1.0M
20260503T00Z_MSC_CAPS_AirTemp_IsbL-0925_RLatLon0.03_PT002H.grib2 2026-05-03 06:06 1.0M
20260503T00Z_MSC_CAPS_AirTemp_IsbL-0950_RLatLon0.03_PT002H.grib2 2026-05-03 06:06 1.0M
20260503T00Z_MSC_CAPS_AirTemp_IsbL-0970_RLatLon0.03_PT002H.grib2 2026-05-03 06:06 1.1M
20260503T00Z_MSC_CAPS_AirTemp_IsbL-0985_RLatLon0.03_PT002H.grib2 2026-05-03 06:06 1.0M
20260503T00Z_MSC_CAPS_AirTemp_IsbL-1000_RLatLon0.03_PT002H.grib2 2026-05-03 06:06 1.0M
20260503T00Z_MSC_CAPS_AirTemp_IsbL-1015_RLatLon0.03_PT002H.grib2 2026-05-03 06:06 1.1M
20260503T00Z_MSC_CAPS_Albedo_Sfc_RLatLon0.03_PT002H.grib2 2026-05-03 06:06 2.7M
20260503T00Z_MSC_CAPS_CAPE_Sfc_RLatLon0.03_PT002H.grib2 2026-05-03 06:06 123K
20260503T00Z_MSC_CAPS_CloudWater_EAtm_RLatLon0.03_PT002H.grib2 2026-05-03 06:06 1.3M
20260503T00Z_MSC_CAPS_ConvectivePrecip-Accum_Sfc_RLatLon0.03_PT002H.grib2 2026-05-03 06:06 1.2M
20260503T00Z_MSC_CAPS_DewPointDepression_AGL-120m_RLatLon0.03_PT002H.grib2 2026-05-03 06:06 1.9M
20260503T00Z_MSC_CAPS_DewPointDepression_AGL-2m_RLatLon0.03_PT002H.grib2 2026-05-03 06:06 2.1M
20260503T00Z_MSC_CAPS_DewPointDepression_AGL-40m_RLatLon0.03_PT002H.grib2 2026-05-03 06:06 1.9M
20260503T00Z_MSC_CAPS_DewPointDepression_AGL-80m_RLatLon0.03_PT002H.grib2 2026-05-03 06:06 1.9M
20260503T00Z_MSC_CAPS_DewPointDepression_IsbL-0050_RLatLon0.03_PT002H.grib2 2026-05-03 06:06 13K
20260503T00Z_MSC_CAPS_DewPointDepression_IsbL-0100_RLatLon0.03_PT002H.grib2 2026-05-03 06:06 99K
20260503T00Z_MSC_CAPS_DewPointDepression_IsbL-0150_RLatLon0.03_PT002H.grib2 2026-05-03 06:06 106K
20260503T00Z_MSC_CAPS_DewPointDepression_IsbL-0175_RLatLon0.03_PT002H.grib2 2026-05-03 06:06 233K
20260503T00Z_MSC_CAPS_DewPointDepression_IsbL-0200_RLatLon0.03_PT002H.grib2 2026-05-03 06:06 362K
20260503T00Z_MSC_CAPS_DewPointDepression_IsbL-0225_RLatLon0.03_PT002H.grib2 2026-05-03 06:06 588K
20260503T00Z_MSC_CAPS_DewPointDepression_IsbL-0250_RLatLon0.03_PT002H.grib2 2026-05-03 06:06 786K
20260503T00Z_MSC_CAPS_DewPointDepression_IsbL-0275_RLatLon0.03_PT002H.grib2 2026-05-03 06:06 925K
20260503T00Z_MSC_CAPS_DewPointDepression_IsbL-0300_RLatLon0.03_PT002H.grib2 2026-05-03 06:06 1.0M
20260503T00Z_MSC_CAPS_DewPointDepression_IsbL-0350_RLatLon0.03_PT002H.grib2 2026-05-03 06:06 1.0M
20260503T00Z_MSC_CAPS_DewPointDepression_IsbL-0400_RLatLon0.03_PT002H.grib2 2026-05-03 06:06 1.0M
20260503T00Z_MSC_CAPS_DewPointDepression_IsbL-0450_RLatLon0.03_PT002H.grib2 2026-05-03 06:06 1.0M
20260503T00Z_MSC_CAPS_DewPointDepression_IsbL-0500_RLatLon0.03_PT002H.grib2 2026-05-03 06:06 1.0M
20260503T00Z_MSC_CAPS_DewPointDepression_IsbL-0550_RLatLon0.03_PT002H.grib2 2026-05-03 06:06 1.1M
20260503T00Z_MSC_CAPS_DewPointDepression_IsbL-0600_RLatLon0.03_PT002H.grib2 2026-05-03 06:06 1.1M
20260503T00Z_MSC_CAPS_DewPointDepression_IsbL-0650_RLatLon0.03_PT002H.grib2 2026-05-03 06:06 1.1M
20260503T00Z_MSC_CAPS_DewPointDepression_IsbL-0700_RLatLon0.03_PT002H.grib2 2026-05-03 06:06 1.2M
20260503T00Z_MSC_CAPS_DewPointDepression_IsbL-0750_RLatLon0.03_PT002H.grib2 2026-05-03 06:06 1.2M
20260503T00Z_MSC_CAPS_DewPointDepression_IsbL-0800_RLatLon0.03_PT002H.grib2 2026-05-03 06:06 1.2M
20260503T00Z_MSC_CAPS_DewPointDepression_IsbL-0850_RLatLon0.03_PT002H.grib2 2026-05-03 06:06 1.3M
20260503T00Z_MSC_CAPS_DewPointDepression_IsbL-0875_RLatLon0.03_PT002H.grib2 2026-05-03 06:06 1.3M
20260503T00Z_MSC_CAPS_DewPointDepression_IsbL-0900_RLatLon0.03_PT002H.grib2 2026-05-03 06:06 1.3M
20260503T00Z_MSC_CAPS_DewPointDepression_IsbL-0925_RLatLon0.03_PT002H.grib2 2026-05-03 06:06 1.3M
20260503T00Z_MSC_CAPS_DewPointDepression_IsbL-0950_RLatLon0.03_PT002H.grib2 2026-05-03 06:06 1.3M
20260503T00Z_MSC_CAPS_DewPointDepression_IsbL-0970_RLatLon0.03_PT002H.grib2 2026-05-03 06:06 1.3M
20260503T00Z_MSC_CAPS_DewPointDepression_IsbL-0985_RLatLon0.03_PT002H.grib2 2026-05-03 06:06 1.3M
20260503T00Z_MSC_CAPS_DewPointDepression_IsbL-1000_RLatLon0.03_PT002H.grib2 2026-05-03 06:06 1.3M
20260503T00Z_MSC_CAPS_DewPointDepression_IsbL-1015_RLatLon0.03_PT002H.grib2 2026-05-03 06:06 1.2M
20260503T00Z_MSC_CAPS_DewPoint_AGL-120m_RLatLon0.03_PT002H.grib2 2026-05-03 06:06 3.4M
20260503T00Z_MSC_CAPS_DewPoint_AGL-2m_RLatLon0.03_PT002H.grib2 2026-05-03 06:06 1.7M
20260503T00Z_MSC_CAPS_DewPoint_AGL-40m_RLatLon0.03_PT002H.grib2 2026-05-03 06:06 3.5M
20260503T00Z_MSC_CAPS_DewPoint_AGL-80m_RLatLon0.03_PT002H.grib2 2026-05-03 06:06 3.4M
20260503T00Z_MSC_CAPS_DownwardLongwaveRadiationFlux-Accum_Sfc_RLatLon0.03_PT002H.grib2 2026-05-03 06:06 2.3M
20260503T00Z_MSC_CAPS_DownwardShortwaveRadiationFlux-Accum_NTAtm_RLatLon0.03_PT002H.grib2 2026-05-03 06:06 343K
20260503T00Z_MSC_CAPS_DownwardShortwaveRadiationFlux-Accum_Sfc_RLatLon0.03_PT002H.grib2 2026-05-03 06:06 1.7M
20260503T00Z_MSC_CAPS_FreezingRain-Accum_Sfc_RLatLon0.03_PT002H.grib2 2026-05-03 06:06 122K
20260503T00Z_MSC_CAPS_GeopotentialHeight_IsbL-0050_RLatLon0.03_PT002H.grib2 2026-05-03 06:06 649K
20260503T00Z_MSC_CAPS_GeopotentialHeight_IsbL-0100_RLatLon0.03_PT002H.grib2 2026-05-03 06:06 763K
20260503T00Z_MSC_CAPS_GeopotentialHeight_IsbL-0150_RLatLon0.03_PT002H.grib2 2026-05-03 06:06 727K
20260503T00Z_MSC_CAPS_GeopotentialHeight_IsbL-0175_RLatLon0.03_PT002H.grib2 2026-05-03 06:06 736K
20260503T00Z_MSC_CAPS_GeopotentialHeight_IsbL-0200_RLatLon0.03_PT002H.grib2 2026-05-03 06:06 745K
20260503T00Z_MSC_CAPS_GeopotentialHeight_IsbL-0225_RLatLon0.03_PT002H.grib2 2026-05-03 06:06 755K
20260503T00Z_MSC_CAPS_GeopotentialHeight_IsbL-0250_RLatLon0.03_PT002H.grib2 2026-05-03 06:06 770K
20260503T00Z_MSC_CAPS_GeopotentialHeight_IsbL-0275_RLatLon0.03_PT002H.grib2 2026-05-03 06:06 780K
20260503T00Z_MSC_CAPS_GeopotentialHeight_IsbL-0300_RLatLon0.03_PT002H.grib2 2026-05-03 06:06 784K
20260503T00Z_MSC_CAPS_GeopotentialHeight_IsbL-0350_RLatLon0.03_PT002H.grib2 2026-05-03 06:06 786K
20260503T00Z_MSC_CAPS_GeopotentialHeight_IsbL-0400_RLatLon0.03_PT002H.grib2 2026-05-03 06:06 780K
20260503T00Z_MSC_CAPS_GeopotentialHeight_IsbL-0450_RLatLon0.03_PT002H.grib2 2026-05-03 06:06 769K
20260503T00Z_MSC_CAPS_GeopotentialHeight_IsbL-0500_RLatLon0.03_PT002H.grib2 2026-05-03 06:06 759K
20260503T00Z_MSC_CAPS_GeopotentialHeight_IsbL-0550_RLatLon0.03_PT002H.grib2 2026-05-03 06:06 751K
20260503T00Z_MSC_CAPS_GeopotentialHeight_IsbL-0600_RLatLon0.03_PT002H.grib2 2026-05-03 06:06 633K
20260503T00Z_MSC_CAPS_GeopotentialHeight_IsbL-0650_RLatLon0.03_PT002H.grib2 2026-05-03 06:06 634K
20260503T00Z_MSC_CAPS_GeopotentialHeight_IsbL-0700_RLatLon0.03_PT002H.grib2 2026-05-03 06:06 634K
20260503T00Z_MSC_CAPS_GeopotentialHeight_IsbL-0750_RLatLon0.03_PT002H.grib2 2026-05-03 06:06 818K
20260503T00Z_MSC_CAPS_GeopotentialHeight_IsbL-0800_RLatLon0.03_PT002H.grib2 2026-05-03 06:06 824K
20260503T00Z_MSC_CAPS_GeopotentialHeight_IsbL-0850_RLatLon0.03_PT002H.grib2 2026-05-03 06:06 832K
20260503T00Z_MSC_CAPS_GeopotentialHeight_IsbL-0875_RLatLon0.03_PT002H.grib2 2026-05-03 06:06 837K
20260503T00Z_MSC_CAPS_GeopotentialHeight_IsbL-0900_RLatLon0.03_PT002H.grib2 2026-05-03 06:06 842K
20260503T00Z_MSC_CAPS_GeopotentialHeight_IsbL-0925_RLatLon0.03_PT002H.grib2 2026-05-03 06:06 834K
20260503T00Z_MSC_CAPS_GeopotentialHeight_IsbL-0950_RLatLon0.03_PT002H.grib2 2026-05-03 06:06 851K
20260503T00Z_MSC_CAPS_GeopotentialHeight_IsbL-0970_RLatLon0.03_PT002H.grib2 2026-05-03 06:06 867K
20260503T00Z_MSC_CAPS_GeopotentialHeight_IsbL-0985_RLatLon0.03_PT002H.grib2 2026-05-03 06:06 875K
20260503T00Z_MSC_CAPS_GeopotentialHeight_IsbL-1000_RLatLon0.03_PT002H.grib2 2026-05-03 06:06 883K
20260503T00Z_MSC_CAPS_GeopotentialHeight_IsbL-1015_RLatLon0.03_PT002H.grib2 2026-05-03 06:06 893K
20260503T00Z_MSC_CAPS_GeopotentialHeight_Sfc_RLatLon0.03_PT002H.grib2 2026-05-03 06:06 1.0M
20260503T00Z_MSC_CAPS_IcePellets-Accum_Sfc_RLatLon0.03_PT002H.grib2 2026-05-03 06:06 11K
20260503T00Z_MSC_CAPS_LatentHeatNetFlux_Sfc_RLatLon0.03_PT002H.grib2 2026-05-03 06:06 2.2M
20260503T00Z_MSC_CAPS_LiftedIndex-MU-VT_IsbL-0500_RLatLon0.03_PT002H.grib2 2026-05-03 06:06 3.3M
20260503T00Z_MSC_CAPS_MixedLayerThickness_Sfc_RLatLon0.03_PT002H.nc 2026-05-03 06:12 16M
20260503T00Z_MSC_CAPS_NetLongwaveRadiationFlux-Accum_Sfc_RLatLon0.03_PT002H.grib2 2026-05-03 06:06 2.6M
20260503T00Z_MSC_CAPS_NetShortwaveRadiationFlux-Accum_Sfc_RLatLon0.03_PT002H.grib2 2026-05-03 06:06 1.8M
20260503T00Z_MSC_CAPS_PlanetaryBoundaryLayerHeight_Sfc_RLatLon0.03_PT002H.grib2 2026-05-03 06:06 2.4M
20260503T00Z_MSC_CAPS_Precip-Accum_Sfc_RLatLon0.03_PT002H.grib2 2026-05-03 06:06 2.4M
20260503T00Z_MSC_CAPS_PrecipRate_Sfc_RLatLon0.03_PT002H.grib2 2026-05-03 06:06 354K
20260503T00Z_MSC_CAPS_PrecipType-Instant_Sfc_RLatLon0.03_PT002H.grib2 2026-05-03 06:06 1.3M
20260503T00Z_MSC_CAPS_Pressure_MSL_RLatLon0.03_PT002H.grib2 2026-05-03 06:06 769K
20260503T00Z_MSC_CAPS_Pressure_Sfc_RLatLon0.03_PT002H.grib2 2026-05-03 06:06 1.2M
20260503T00Z_MSC_CAPS_RadiativeTemp_Sfc_RLatLon0.03_PT002H.grib2 2026-05-03 06:06 2.1M
20260503T00Z_MSC_CAPS_Rain-Accum_Sfc_RLatLon0.03_PT002H.grib2 2026-05-03 06:06 1.0M
20260503T00Z_MSC_CAPS_RelativeHumidity_AGL-120m_RLatLon0.03_PT002H.grib2 2026-05-03 06:06 2.7M
20260503T00Z_MSC_CAPS_RelativeHumidity_AGL-2m_RLatLon0.03_PT002H.grib2 2026-05-03 06:06 2.9M
20260503T00Z_MSC_CAPS_RelativeHumidity_AGL-40m_RLatLon0.03_PT002H.grib2 2026-05-03 06:06 2.8M
20260503T00Z_MSC_CAPS_RelativeHumidity_AGL-80m_RLatLon0.03_PT002H.grib2 2026-05-03 06:06 2.6M
20260503T00Z_MSC_CAPS_RelativeHumidity_IsbL-0050_RLatLon0.03_PT002H.grib2 2026-05-03 06:06 718K
20260503T00Z_MSC_CAPS_RelativeHumidity_IsbL-0100_RLatLon0.03_PT002H.grib2 2026-05-03 06:06 839K
20260503T00Z_MSC_CAPS_RelativeHumidity_IsbL-0150_RLatLon0.03_PT002H.grib2 2026-05-03 06:06 480K
20260503T00Z_MSC_CAPS_RelativeHumidity_IsbL-0175_RLatLon0.03_PT002H.grib2 2026-05-03 06:06 469K
20260503T00Z_MSC_CAPS_RelativeHumidity_IsbL-0200_RLatLon0.03_PT002H.grib2 2026-05-03 06:06 625K
20260503T00Z_MSC_CAPS_RelativeHumidity_IsbL-0225_RLatLon0.03_PT002H.grib2 2026-05-03 06:06 838K
20260503T00Z_MSC_CAPS_RelativeHumidity_IsbL-0250_RLatLon0.03_PT002H.grib2 2026-05-03 06:06 1.0M
20260503T00Z_MSC_CAPS_RelativeHumidity_IsbL-0275_RLatLon0.03_PT002H.grib2 2026-05-03 06:06 1.3M
20260503T00Z_MSC_CAPS_RelativeHumidity_IsbL-0300_RLatLon0.03_PT002H.grib2 2026-05-03 06:06 1.4M
20260503T00Z_MSC_CAPS_RelativeHumidity_IsbL-0350_RLatLon0.03_PT002H.grib2 2026-05-03 06:06 1.6M
20260503T00Z_MSC_CAPS_RelativeHumidity_IsbL-0400_RLatLon0.03_PT002H.grib2 2026-05-03 06:06 1.7M
20260503T00Z_MSC_CAPS_RelativeHumidity_IsbL-0450_RLatLon0.03_PT002H.grib2 2026-05-03 06:06 1.8M
20260503T00Z_MSC_CAPS_RelativeHumidity_IsbL-0500_RLatLon0.03_PT002H.grib2 2026-05-03 06:06 1.7M
20260503T00Z_MSC_CAPS_RelativeHumidity_IsbL-0550_RLatLon0.03_PT002H.grib2 2026-05-03 06:06 2.0M
20260503T00Z_MSC_CAPS_RelativeHumidity_IsbL-0600_RLatLon0.03_PT002H.grib2 2026-05-03 06:06 1.9M
20260503T00Z_MSC_CAPS_RelativeHumidity_IsbL-0650_RLatLon0.03_PT002H.grib2 2026-05-03 06:06 2.1M
20260503T00Z_MSC_CAPS_RelativeHumidity_IsbL-0700_RLatLon0.03_PT002H.grib2 2026-05-03 06:06 2.1M
20260503T00Z_MSC_CAPS_RelativeHumidity_IsbL-0750_RLatLon0.03_PT002H.grib2 2026-05-03 06:06 2.2M
20260503T00Z_MSC_CAPS_RelativeHumidity_IsbL-0800_RLatLon0.03_PT002H.grib2 2026-05-03 06:06 2.2M
20260503T00Z_MSC_CAPS_RelativeHumidity_IsbL-0850_RLatLon0.03_PT002H.grib2 2026-05-03 06:06 2.3M
20260503T00Z_MSC_CAPS_RelativeHumidity_IsbL-0875_RLatLon0.03_PT002H.grib2 2026-05-03 06:06 2.5M
20260503T00Z_MSC_CAPS_RelativeHumidity_IsbL-0900_RLatLon0.03_PT002H.grib2 2026-05-03 06:06 2.5M
20260503T00Z_MSC_CAPS_RelativeHumidity_IsbL-0925_RLatLon0.03_PT002H.grib2 2026-05-03 06:06 2.5M
20260503T00Z_MSC_CAPS_RelativeHumidity_IsbL-0950_RLatLon0.03_PT002H.grib2 2026-05-03 06:06 2.6M
20260503T00Z_MSC_CAPS_RelativeHumidity_IsbL-0970_RLatLon0.03_PT002H.grib2 2026-05-03 06:06 2.7M
20260503T00Z_MSC_CAPS_RelativeHumidity_IsbL-0985_RLatLon0.03_PT002H.grib2 2026-05-03 06:06 2.7M
20260503T00Z_MSC_CAPS_RelativeHumidity_IsbL-1000_RLatLon0.03_PT002H.grib2 2026-05-03 06:06 2.8M
20260503T00Z_MSC_CAPS_RelativeHumidity_IsbL-1015_RLatLon0.03_PT002H.grib2 2026-05-03 06:06 2.8M
20260503T00Z_MSC_CAPS_Runoff-Accum_Sfc_RLatLon0.03_PT002H.grib2 2026-05-03 06:06 273K
20260503T00Z_MSC_CAPS_SeaIceAreaFraction_Sfc_RLatLon0.03_PT002H.nc 2026-05-03 06:12 15M
20260503T00Z_MSC_CAPS_SeaIceCompressiveStrength_Sfc_RLatLon0.03_PT002H.nc 2026-05-03 06:12 15M
20260503T00Z_MSC_CAPS_SeaIceDivergence_Sfc_RLatLon0.03_PT002H.nc 2026-05-03 06:12 15M
20260503T00Z_MSC_CAPS_SeaIceInternalPressure_Sfc_RLatLon0.03_PT002H.nc 2026-05-03 06:12 15M
20260503T00Z_MSC_CAPS_SeaIceShear_Sfc_RLatLon0.03_PT002H.nc 2026-05-03 06:12 14M
20260503T00Z_MSC_CAPS_SeaIceSnowTemp_Sfc_RLatLon0.03_PT002H.nc 2026-05-03 06:12 14M
20260503T00Z_MSC_CAPS_SeaIceSnowVolume_Sfc_RLatLon0.03_PT002H.nc 2026-05-03 06:12 15M
20260503T00Z_MSC_CAPS_SeaIceVelocityX_Sfc_RLatLon0.03_PT002H.nc 2026-05-03 06:12 15M
20260503T00Z_MSC_CAPS_SeaIceVelocityY_Sfc_RLatLon0.03_PT002H.nc 2026-05-03 06:12 15M
20260503T00Z_MSC_CAPS_SeaIceVolume_Sfc_RLatLon0.03_PT002H.nc 2026-05-03 06:12 15M
20260503T00Z_MSC_CAPS_SeaSurfaceHeight_Sfc_RLatLon0.03_PT002H.nc 2026-05-03 06:12 16M
20260503T00Z_MSC_CAPS_SeaWaterSalinity_DBS-0.5m_RLatLon0.03_PT002H.nc 2026-05-03 06:12 16M
20260503T00Z_MSC_CAPS_SeaWaterSalinity_DBS-all_RLatLon0.03_PT002H.nc 2026-05-03 06:12 107M
20260503T00Z_MSC_CAPS_SeaWaterTemp_DBS-0.5m_RLatLon0.03_PT002H.nc 2026-05-03 06:12 14M
20260503T00Z_MSC_CAPS_SeaWaterTemp_DBS-all_RLatLon0.03_PT002H.nc 2026-05-03 06:12 88M
20260503T00Z_MSC_CAPS_SeaWaterVelocityX_DBS-0.5m_RLatLon0.03_PT002H.nc 2026-05-03 06:12 17M
20260503T00Z_MSC_CAPS_SeaWaterVelocityX_DBS-all_RLatLon0.03_PT002H.nc 2026-05-03 06:12 209M
20260503T00Z_MSC_CAPS_SeaWaterVelocityY_DBS-0.5m_RLatLon0.03_PT002H.nc 2026-05-03 06:12 17M
20260503T00Z_MSC_CAPS_SeaWaterVelocityY_DBS-all_RLatLon0.03_PT002H.nc 2026-05-03 06:12 214M
20260503T00Z_MSC_CAPS_SensibleHeatNetFlux_Sfc_RLatLon0.03_PT002H.grib2 2026-05-03 06:06 1.8M
20260503T00Z_MSC_CAPS_ShowalterIndex_IsbL-0500_RLatLon0.03_PT002H.grib2 2026-05-03 06:06 4.3M
20260503T00Z_MSC_CAPS_Snow-Accum_Sfc_RLatLon0.03_PT002H.grib2 2026-05-03 06:06 1.7M
20260503T00Z_MSC_CAPS_SnowDensity_Sfc_RLatLon0.03_PT002H.grib2 2026-05-03 06:06 1.1M
20260503T00Z_MSC_CAPS_SnowDepthWaterEquivalent_Sfc_RLatLon0.03_PT002H.grib2 2026-05-03 06:06 660K
20260503T00Z_MSC_CAPS_SnowDepth_Sfc_RLatLon0.03_PT002H.grib2 2026-05-03 06:06 1.2M
20260503T00Z_MSC_CAPS_SoilTemp_DBS-0to10cm_RLatLon0.03_PT002H.grib2 2026-05-03 06:06 1.1M
20260503T00Z_MSC_CAPS_SoilTemp_Sfc_RLatLon0.03_PT002H.grib2 2026-05-03 06:06 1.8M
20260503T00Z_MSC_CAPS_SoilVolumetricIceContent_Sfc_RLatLon0.03_PT002H.grib2 2026-05-03 06:06 1.3M
20260503T00Z_MSC_CAPS_SoilVolumetricWaterContent_DBS-0to10cm_RLatLon0.03_PT002H.grib2 2026-05-03 06:06 1.2M
20260503T00Z_MSC_CAPS_SoilVolumetricWaterContent_DBS-0to1cm_RLatLon0.03_PT002H.grib2 2026-05-03 06:06 1.7M
20260503T00Z_MSC_CAPS_SpecificHumidity_AGL-120m_RLatLon0.03_PT002H.grib2 2026-05-03 06:06 1.6M
20260503T00Z_MSC_CAPS_SpecificHumidity_AGL-2m_RLatLon0.03_PT002H.grib2 2026-05-03 06:06 1.6M
20260503T00Z_MSC_CAPS_SpecificHumidity_AGL-40m_RLatLon0.03_PT002H.grib2 2026-05-03 06:06 1.7M
20260503T00Z_MSC_CAPS_SpecificHumidity_AGL-80m_RLatLon0.03_PT002H.grib2 2026-05-03 06:06 1.6M
20260503T00Z_MSC_CAPS_SpecificHumidity_IsbL-0050_RLatLon0.03_PT002H.grib2 2026-05-03 06:06 844K
20260503T00Z_MSC_CAPS_SpecificHumidity_IsbL-0100_RLatLon0.03_PT002H.grib2 2026-05-03 06:06 925K
20260503T00Z_MSC_CAPS_SpecificHumidity_IsbL-0150_RLatLon0.03_PT002H.grib2 2026-05-03 06:06 732K
20260503T00Z_MSC_CAPS_SpecificHumidity_IsbL-0175_RLatLon0.03_PT002H.grib2 2026-05-03 06:06 947K
20260503T00Z_MSC_CAPS_SpecificHumidity_IsbL-0200_RLatLon0.03_PT002H.grib2 2026-05-03 06:06 810K
20260503T00Z_MSC_CAPS_SpecificHumidity_IsbL-0225_RLatLon0.03_PT002H.grib2 2026-05-03 06:06 1.0M
20260503T00Z_MSC_CAPS_SpecificHumidity_IsbL-0250_RLatLon0.03_PT002H.grib2 2026-05-03 06:06 1.0M
20260503T00Z_MSC_CAPS_SpecificHumidity_IsbL-0275_RLatLon0.03_PT002H.grib2 2026-05-03 06:06 1.0M
20260503T00Z_MSC_CAPS_SpecificHumidity_IsbL-0300_RLatLon0.03_PT002H.grib2 2026-05-03 06:06 891K
20260503T00Z_MSC_CAPS_SpecificHumidity_IsbL-0350_RLatLon0.03_PT002H.grib2 2026-05-03 06:06 1.0M
20260503T00Z_MSC_CAPS_SpecificHumidity_IsbL-0400_RLatLon0.03_PT002H.grib2 2026-05-03 06:06 1.0M
20260503T00Z_MSC_CAPS_SpecificHumidity_IsbL-0450_RLatLon0.03_PT002H.grib2 2026-05-03 06:06 1.0M
20260503T00Z_MSC_CAPS_SpecificHumidity_IsbL-0500_RLatLon0.03_PT002H.grib2 2026-05-03 06:06 1.1M
20260503T00Z_MSC_CAPS_SpecificHumidity_IsbL-0550_RLatLon0.03_PT002H.grib2 2026-05-03 06:06 1.0M
20260503T00Z_MSC_CAPS_SpecificHumidity_IsbL-0600_RLatLon0.03_PT002H.grib2 2026-05-03 06:06 1.2M
20260503T00Z_MSC_CAPS_SpecificHumidity_IsbL-0650_RLatLon0.03_PT002H.grib2 2026-05-03 06:06 1.3M
20260503T00Z_MSC_CAPS_SpecificHumidity_IsbL-0700_RLatLon0.03_PT002H.grib2 2026-05-03 06:06 1.1M
20260503T00Z_MSC_CAPS_SpecificHumidity_IsbL-0750_RLatLon0.03_PT002H.grib2 2026-05-03 06:06 1.2M
20260503T00Z_MSC_CAPS_SpecificHumidity_IsbL-0800_RLatLon0.03_PT002H.grib2 2026-05-03 06:06 1.3M
20260503T00Z_MSC_CAPS_SpecificHumidity_IsbL-0850_RLatLon0.03_PT002H.grib2 2026-05-03 06:06 1.5M
20260503T00Z_MSC_CAPS_SpecificHumidity_IsbL-0875_RLatLon0.03_PT002H.grib2 2026-05-03 06:06 1.6M
20260503T00Z_MSC_CAPS_SpecificHumidity_IsbL-0900_RLatLon0.03_PT002H.grib2 2026-05-03 06:06 1.7M
20260503T00Z_MSC_CAPS_SpecificHumidity_IsbL-0925_RLatLon0.03_PT002H.grib2 2026-05-03 06:06 1.7M
20260503T00Z_MSC_CAPS_SpecificHumidity_IsbL-0950_RLatLon0.03_PT002H.grib2 2026-05-03 06:06 1.4M
20260503T00Z_MSC_CAPS_SpecificHumidity_IsbL-0970_RLatLon0.03_PT002H.grib2 2026-05-03 06:06 1.5M
20260503T00Z_MSC_CAPS_SpecificHumidity_IsbL-0985_RLatLon0.03_PT002H.grib2 2026-05-03 06:06 1.6M
20260503T00Z_MSC_CAPS_SpecificHumidity_IsbL-1000_RLatLon0.03_PT002H.grib2 2026-05-03 06:06 1.6M
20260503T00Z_MSC_CAPS_SpecificHumidity_IsbL-1015_RLatLon0.03_PT002H.grib2 2026-05-03 06:06 1.6M
20260503T00Z_MSC_CAPS_SpecificHumidity_Sfc_RLatLon0.03_PT002H.grib2 2026-05-03 06:06 2.0M
20260503T00Z_MSC_CAPS_StormRelativeHelicity_Sfc_RLatLon0.03_PT002H.grib2 2026-05-03 06:06 3.2M
20260503T00Z_MSC_CAPS_Thickness_IsbL-1000to0500_RLatLon0.03_PT002H.grib2 2026-05-03 06:06 472K
20260503T00Z_MSC_CAPS_TotalCloudCover_Sfc_RLatLon0.03_PT002H.grib2 2026-05-03 06:06 3.2M
20260503T00Z_MSC_CAPS_TurboclineDepth_Sfc_RLatLon0.03_PT002H.nc 2026-05-03 06:12 16M
20260503T00Z_MSC_CAPS_UpwardLongwaveRadiationFlux_NTAtm_RLatLon0.03_PT002H.grib2 2026-05-03 06:06 2.7M
20260503T00Z_MSC_CAPS_UpwardShortwaveRadiationFlux_NTAtm_RLatLon0.03_PT002H.grib2 2026-05-03 06:06 1.8M
20260503T00Z_MSC_CAPS_VerticalVelocity_IsbL-0250_RLatLon0.03_PT002H.grib2 2026-05-03 06:06 904K
20260503T00Z_MSC_CAPS_VerticalVelocity_IsbL-0500_RLatLon0.03_PT002H.grib2 2026-05-03 06:06 1.1M
20260503T00Z_MSC_CAPS_VerticalVelocity_IsbL-0700_RLatLon0.03_PT002H.grib2 2026-05-03 06:06 1.2M
20260503T00Z_MSC_CAPS_VerticalVelocity_IsbL-0850_RLatLon0.03_PT002H.grib2 2026-05-03 06:06 1.4M
20260503T00Z_MSC_CAPS_VerticalVelocity_IsbL-1000_RLatLon0.03_PT002H.grib2 2026-05-03 06:06 1.4M
20260503T00Z_MSC_CAPS_WindDir_AGL-10m_RLatLon0.03_PT002H.grib2 2026-05-03 06:06 2.3M
20260503T00Z_MSC_CAPS_WindDir_AGL-120m_RLatLon0.03_PT002H.grib2 2026-05-03 06:06 1.1M
20260503T00Z_MSC_CAPS_WindDir_AGL-40m_RLatLon0.03_PT002H.grib2 2026-05-03 06:06 1.2M
20260503T00Z_MSC_CAPS_WindDir_AGL-80m_RLatLon0.03_PT002H.grib2 2026-05-03 06:06 1.2M
20260503T00Z_MSC_CAPS_WindDir_IsbL-0050_RLatLon0.03_PT002H.grib2 2026-05-03 06:06 1.1M
20260503T00Z_MSC_CAPS_WindDir_IsbL-0100_RLatLon0.03_PT002H.grib2 2026-05-03 06:06 1.0M
20260503T00Z_MSC_CAPS_WindDir_IsbL-0150_RLatLon0.03_PT002H.grib2 2026-05-03 06:06 1.0M
20260503T00Z_MSC_CAPS_WindDir_IsbL-0175_RLatLon0.03_PT002H.grib2 2026-05-03 06:06 1.1M
20260503T00Z_MSC_CAPS_WindDir_IsbL-0200_RLatLon0.03_PT002H.grib2 2026-05-03 06:06 1.1M
20260503T00Z_MSC_CAPS_WindDir_IsbL-0225_RLatLon0.03_PT002H.grib2 2026-05-03 06:06 1.1M
20260503T00Z_MSC_CAPS_WindDir_IsbL-0250_RLatLon0.03_PT002H.grib2 2026-05-03 06:06 1.1M
20260503T00Z_MSC_CAPS_WindDir_IsbL-0275_RLatLon0.03_PT002H.grib2 2026-05-03 06:06 1.1M
20260503T00Z_MSC_CAPS_WindDir_IsbL-0300_RLatLon0.03_PT002H.grib2 2026-05-03 06:06 1.1M
20260503T00Z_MSC_CAPS_WindDir_IsbL-0350_RLatLon0.03_PT002H.grib2 2026-05-03 06:06 1.1M
20260503T00Z_MSC_CAPS_WindDir_IsbL-0400_RLatLon0.03_PT002H.grib2 2026-05-03 06:06 1.1M
20260503T00Z_MSC_CAPS_WindDir_IsbL-0450_RLatLon0.03_PT002H.grib2 2026-05-03 06:06 1.2M
20260503T00Z_MSC_CAPS_WindDir_IsbL-0500_RLatLon0.03_PT002H.grib2 2026-05-03 06:06 1.2M
20260503T00Z_MSC_CAPS_WindDir_IsbL-0550_RLatLon0.03_PT002H.grib2 2026-05-03 06:06 1.2M
20260503T00Z_MSC_CAPS_WindDir_IsbL-0600_RLatLon0.03_PT002H.grib2 2026-05-03 06:06 1.2M
20260503T00Z_MSC_CAPS_WindDir_IsbL-0650_RLatLon0.03_PT002H.grib2 2026-05-03 06:06 1.3M
20260503T00Z_MSC_CAPS_WindDir_IsbL-0700_RLatLon0.03_PT002H.grib2 2026-05-03 06:06 1.4M
20260503T00Z_MSC_CAPS_WindDir_IsbL-0750_RLatLon0.03_PT002H.grib2 2026-05-03 06:06 1.5M
20260503T00Z_MSC_CAPS_WindDir_IsbL-0800_RLatLon0.03_PT002H.grib2 2026-05-03 06:06 1.6M
20260503T00Z_MSC_CAPS_WindDir_IsbL-0850_RLatLon0.03_PT002H.grib2 2026-05-03 06:06 1.7M
20260503T00Z_MSC_CAPS_WindDir_IsbL-0875_RLatLon0.03_PT002H.grib2 2026-05-03 06:06 1.7M
20260503T00Z_MSC_CAPS_WindDir_IsbL-0900_RLatLon0.03_PT002H.grib2 2026-05-03 06:06 1.8M
20260503T00Z_MSC_CAPS_WindDir_IsbL-0925_RLatLon0.03_PT002H.grib2 2026-05-03 06:06 1.9M
20260503T00Z_MSC_CAPS_WindDir_IsbL-0950_RLatLon0.03_PT002H.grib2 2026-05-03 06:06 1.9M
20260503T00Z_MSC_CAPS_WindDir_IsbL-0970_RLatLon0.03_PT002H.grib2 2026-05-03 06:06 2.0M
20260503T00Z_MSC_CAPS_WindDir_IsbL-0985_RLatLon0.03_PT002H.grib2 2026-05-03 06:06 2.1M
20260503T00Z_MSC_CAPS_WindDir_IsbL-1000_RLatLon0.03_PT002H.grib2 2026-05-03 06:06 2.2M
20260503T00Z_MSC_CAPS_WindDir_IsbL-1015_RLatLon0.03_PT002H.grib2 2026-05-03 06:06 2.2M
20260503T00Z_MSC_CAPS_WindGust-Max_AGL-10m_RLatLon0.03_PT002H.grib2 2026-05-03 06:06 2.4M
20260503T00Z_MSC_CAPS_WindGust-Min_AGL-10m_RLatLon0.03_PT002H.grib2 2026-05-03 06:06 2.3M
20260503T00Z_MSC_CAPS_WindGust_AGL-10m_RLatLon0.03_PT002H.grib2 2026-05-03 06:06 2.4M
20260503T00Z_MSC_CAPS_WindSpeed_AGL-10m_RLatLon0.03_PT002H.grib2 2026-05-03 06:06 2.1M
20260503T00Z_MSC_CAPS_WindSpeed_AGL-120m_RLatLon0.03_PT002H.grib2 2026-05-03 06:06 1.1M
20260503T00Z_MSC_CAPS_WindSpeed_AGL-40m_RLatLon0.03_PT002H.grib2 2026-05-03 06:06 1.2M
20260503T00Z_MSC_CAPS_WindSpeed_AGL-80m_RLatLon0.03_PT002H.grib2 2026-05-03 06:06 1.1M
20260503T00Z_MSC_CAPS_WindSpeed_IsbL-0050_RLatLon0.03_PT002H.grib2 2026-05-03 06:06 1.0M
20260503T00Z_MSC_CAPS_WindSpeed_IsbL-0100_RLatLon0.03_PT002H.grib2 2026-05-03 06:06 1.0M
20260503T00Z_MSC_CAPS_WindSpeed_IsbL-0150_RLatLon0.03_PT002H.grib2 2026-05-03 06:06 1.1M
20260503T00Z_MSC_CAPS_WindSpeed_IsbL-0175_RLatLon0.03_PT002H.grib2 2026-05-03 06:06 1.2M
20260503T00Z_MSC_CAPS_WindSpeed_IsbL-0200_RLatLon0.03_PT002H.grib2 2026-05-03 06:06 936K
20260503T00Z_MSC_CAPS_WindSpeed_IsbL-0225_RLatLon0.03_PT002H.grib2 2026-05-03 06:06 1.0M
20260503T00Z_MSC_CAPS_WindSpeed_IsbL-0250_RLatLon0.03_PT002H.grib2 2026-05-03 06:06 1.0M
20260503T00Z_MSC_CAPS_WindSpeed_IsbL-0275_RLatLon0.03_PT002H.grib2 2026-05-03 06:06 1.0M
20260503T00Z_MSC_CAPS_WindSpeed_IsbL-0300_RLatLon0.03_PT002H.grib2 2026-05-03 06:06 1.0M
20260503T00Z_MSC_CAPS_WindSpeed_IsbL-0350_RLatLon0.03_PT002H.grib2 2026-05-03 06:06 1.0M
20260503T00Z_MSC_CAPS_WindSpeed_IsbL-0400_RLatLon0.03_PT002H.grib2 2026-05-03 06:06 1.0M
20260503T00Z_MSC_CAPS_WindSpeed_IsbL-0450_RLatLon0.03_PT002H.grib2 2026-05-03 06:06 1.0M
20260503T00Z_MSC_CAPS_WindSpeed_IsbL-0500_RLatLon0.03_PT002H.grib2 2026-05-03 06:06 1.4M
20260503T00Z_MSC_CAPS_WindSpeed_IsbL-0550_RLatLon0.03_PT002H.grib2 2026-05-03 06:06 1.4M
20260503T00Z_MSC_CAPS_WindSpeed_IsbL-0600_RLatLon0.03_PT002H.grib2 2026-05-03 06:06 1.4M
20260503T00Z_MSC_CAPS_WindSpeed_IsbL-0650_RLatLon0.03_PT002H.grib2 2026-05-03 06:06 1.4M
20260503T00Z_MSC_CAPS_WindSpeed_IsbL-0700_RLatLon0.03_PT002H.grib2 2026-05-03 06:06 1.4M
20260503T00Z_MSC_CAPS_WindSpeed_IsbL-0750_RLatLon0.03_PT002H.grib2 2026-05-03 06:06 1.5M
20260503T00Z_MSC_CAPS_WindSpeed_IsbL-0800_RLatLon0.03_PT002H.grib2 2026-05-03 06:06 1.6M
20260503T00Z_MSC_CAPS_WindSpeed_IsbL-0850_RLatLon0.03_PT002H.grib2 2026-05-03 06:06 1.7M
20260503T00Z_MSC_CAPS_WindSpeed_IsbL-0875_RLatLon0.03_PT002H.grib2 2026-05-03 06:06 1.7M
20260503T00Z_MSC_CAPS_WindSpeed_IsbL-0900_RLatLon0.03_PT002H.grib2 2026-05-03 06:06 1.7M
20260503T00Z_MSC_CAPS_WindSpeed_IsbL-0925_RLatLon0.03_PT002H.grib2 2026-05-03 06:06 1.8M
20260503T00Z_MSC_CAPS_WindSpeed_IsbL-0950_RLatLon0.03_PT002H.grib2 2026-05-03 06:06 1.9M
20260503T00Z_MSC_CAPS_WindSpeed_IsbL-0970_RLatLon0.03_PT002H.grib2 2026-05-03 06:06 1.9M
20260503T00Z_MSC_CAPS_WindSpeed_IsbL-0985_RLatLon0.03_PT002H.grib2 2026-05-03 06:06 2.0M
20260503T00Z_MSC_CAPS_WindSpeed_IsbL-1000_RLatLon0.03_PT002H.grib2 2026-05-03 06:06 2.0M
20260503T00Z_MSC_CAPS_WindSpeed_IsbL-1015_RLatLon0.03_PT002H.grib2 2026-05-03 06:06 2.0M
20260503T00Z_MSC_CAPS_WindU_AGL-10m_RLatLon0.03_PT002H.grib2 2026-05-03 06:06 2.0M
20260503T00Z_MSC_CAPS_WindU_AGL-120m_RLatLon0.03_PT002H.grib2 2026-05-03 06:06 1.2M
20260503T00Z_MSC_CAPS_WindU_AGL-40m_RLatLon0.03_PT002H.grib2 2026-05-03 06:06 1.2M
20260503T00Z_MSC_CAPS_WindU_AGL-80m_RLatLon0.03_PT002H.grib2 2026-05-03 06:06 1.2M
20260503T00Z_MSC_CAPS_WindU_IsbL-0050_RLatLon0.03_PT002H.grib2 2026-05-03 06:06 970K
20260503T00Z_MSC_CAPS_WindU_IsbL-0100_RLatLon0.03_PT002H.grib2 2026-05-03 06:06 811K
20260503T00Z_MSC_CAPS_WindU_IsbL-0150_RLatLon0.03_PT002H.grib2 2026-05-03 06:06 718K
20260503T00Z_MSC_CAPS_WindU_IsbL-0175_RLatLon0.03_PT002H.grib2 2026-05-03 06:06 854K
20260503T00Z_MSC_CAPS_WindU_IsbL-0200_RLatLon0.03_PT002H.grib2 2026-05-03 06:06 866K
20260503T00Z_MSC_CAPS_WindU_IsbL-0225_RLatLon0.03_PT002H.grib2 2026-05-03 06:06 889K
20260503T00Z_MSC_CAPS_WindU_IsbL-0250_RLatLon0.03_PT002H.grib2 2026-05-03 06:06 700K
20260503T00Z_MSC_CAPS_WindU_IsbL-0275_RLatLon0.03_PT002H.grib2 2026-05-03 06:06 709K
20260503T00Z_MSC_CAPS_WindU_IsbL-0300_RLatLon0.03_PT002H.grib2 2026-05-03 06:06 717K
20260503T00Z_MSC_CAPS_WindU_IsbL-0350_RLatLon0.03_PT002H.grib2 2026-05-03 06:06 730K
20260503T00Z_MSC_CAPS_WindU_IsbL-0400_RLatLon0.03_PT002H.grib2 2026-05-03 06:06 952K
20260503T00Z_MSC_CAPS_WindU_IsbL-0450_RLatLon0.03_PT002H.grib2 2026-05-03 06:06 966K
20260503T00Z_MSC_CAPS_WindU_IsbL-0500_RLatLon0.03_PT002H.grib2 2026-05-03 06:06 1.0M
20260503T00Z_MSC_CAPS_WindU_IsbL-0550_RLatLon0.03_PT002H.grib2 2026-05-03 06:06 889K
20260503T00Z_MSC_CAPS_WindU_IsbL-0600_RLatLon0.03_PT002H.grib2 2026-05-03 06:06 922K
20260503T00Z_MSC_CAPS_WindU_IsbL-0650_RLatLon0.03_PT002H.grib2 2026-05-03 06:06 961K
20260503T00Z_MSC_CAPS_WindU_IsbL-0700_RLatLon0.03_PT002H.grib2 2026-05-03 06:06 1.0M
20260503T00Z_MSC_CAPS_WindU_IsbL-0750_RLatLon0.03_PT002H.grib2 2026-05-03 06:06 1.3M
20260503T00Z_MSC_CAPS_WindU_IsbL-0800_RLatLon0.03_PT002H.grib2 2026-05-03 06:06 1.4M
20260503T00Z_MSC_CAPS_WindU_IsbL-0850_RLatLon0.03_PT002H.grib2 2026-05-03 06:06 1.2M
20260503T00Z_MSC_CAPS_WindU_IsbL-0875_RLatLon0.03_PT002H.grib2 2026-05-03 06:06 1.2M
20260503T00Z_MSC_CAPS_WindU_IsbL-0900_RLatLon0.03_PT002H.grib2 2026-05-03 06:06 1.3M
20260503T00Z_MSC_CAPS_WindU_IsbL-0925_RLatLon0.03_PT002H.grib2 2026-05-03 06:06 1.3M
20260503T00Z_MSC_CAPS_WindU_IsbL-0950_RLatLon0.03_PT002H.grib2 2026-05-03 06:06 1.3M
20260503T00Z_MSC_CAPS_WindU_IsbL-0970_RLatLon0.03_PT002H.grib2 2026-05-03 06:06 1.4M
20260503T00Z_MSC_CAPS_WindU_IsbL-0985_RLatLon0.03_PT002H.grib2 2026-05-03 06:06 1.8M
20260503T00Z_MSC_CAPS_WindU_IsbL-1000_RLatLon0.03_PT002H.grib2 2026-05-03 06:06 1.8M
20260503T00Z_MSC_CAPS_WindU_IsbL-1015_RLatLon0.03_PT002H.grib2 2026-05-03 06:06 2.0M
20260503T00Z_MSC_CAPS_WindV_AGL-10m_RLatLon0.03_PT002H.grib2 2026-05-03 06:06 2.0M
20260503T00Z_MSC_CAPS_WindV_AGL-120m_RLatLon0.03_PT002H.grib2 2026-05-03 06:06 880K
20260503T00Z_MSC_CAPS_WindV_AGL-40m_RLatLon0.03_PT002H.grib2 2026-05-03 06:06 1.2M
20260503T00Z_MSC_CAPS_WindV_AGL-80m_RLatLon0.03_PT002H.grib2 2026-05-03 06:06 1.1M
20260503T00Z_MSC_CAPS_WindV_IsbL-0050_RLatLon0.03_PT002H.grib2 2026-05-03 06:06 967K
20260503T00Z_MSC_CAPS_WindV_IsbL-0100_RLatLon0.03_PT002H.grib2 2026-05-03 06:06 1.0M
20260503T00Z_MSC_CAPS_WindV_IsbL-0150_RLatLon0.03_PT002H.grib2 2026-05-03 06:06 721K
20260503T00Z_MSC_CAPS_WindV_IsbL-0175_RLatLon0.03_PT002H.grib2 2026-05-03 06:06 857K
20260503T00Z_MSC_CAPS_WindV_IsbL-0200_RLatLon0.03_PT002H.grib2 2026-05-03 06:06 872K
20260503T00Z_MSC_CAPS_WindV_IsbL-0225_RLatLon0.03_PT002H.grib2 2026-05-03 06:06 892K
20260503T00Z_MSC_CAPS_WindV_IsbL-0250_RLatLon0.03_PT002H.grib2 2026-05-03 06:06 912K
20260503T00Z_MSC_CAPS_WindV_IsbL-0275_RLatLon0.03_PT002H.grib2 2026-05-03 06:06 921K
20260503T00Z_MSC_CAPS_WindV_IsbL-0300_RLatLon0.03_PT002H.grib2 2026-05-03 06:06 929K
20260503T00Z_MSC_CAPS_WindV_IsbL-0350_RLatLon0.03_PT002H.grib2 2026-05-03 06:06 947K
20260503T00Z_MSC_CAPS_WindV_IsbL-0400_RLatLon0.03_PT002H.grib2 2026-05-03 06:06 958K
20260503T00Z_MSC_CAPS_WindV_IsbL-0450_RLatLon0.03_PT002H.grib2 2026-05-03 06:06 970K
20260503T00Z_MSC_CAPS_WindV_IsbL-0500_RLatLon0.03_PT002H.grib2 2026-05-03 06:06 1.0M
20260503T00Z_MSC_CAPS_WindV_IsbL-0550_RLatLon0.03_PT002H.grib2 2026-05-03 06:06 891K
20260503T00Z_MSC_CAPS_WindV_IsbL-0600_RLatLon0.03_PT002H.grib2 2026-05-03 06:06 923K
20260503T00Z_MSC_CAPS_WindV_IsbL-0650_RLatLon0.03_PT002H.grib2 2026-05-03 06:06 959K
20260503T00Z_MSC_CAPS_WindV_IsbL-0700_RLatLon0.03_PT002H.grib2 2026-05-03 06:06 1.3M
20260503T00Z_MSC_CAPS_WindV_IsbL-0750_RLatLon0.03_PT002H.grib2 2026-05-03 06:06 1.3M
20260503T00Z_MSC_CAPS_WindV_IsbL-0800_RLatLon0.03_PT002H.grib2 2026-05-03 06:06 1.4M
20260503T00Z_MSC_CAPS_WindV_IsbL-0850_RLatLon0.03_PT002H.grib2 2026-05-03 06:06 1.2M
20260503T00Z_MSC_CAPS_WindV_IsbL-0875_RLatLon0.03_PT002H.grib2 2026-05-03 06:06 1.2M
20260503T00Z_MSC_CAPS_WindV_IsbL-0900_RLatLon0.03_PT002H.grib2 2026-05-03 06:06 1.2M
20260503T00Z_MSC_CAPS_WindV_IsbL-0925_RLatLon0.03_PT002H.grib2 2026-05-03 06:06 1.3M
20260503T00Z_MSC_CAPS_WindV_IsbL-0950_RLatLon0.03_PT002H.grib2 2026-05-03 06:06 1.3M
20260503T00Z_MSC_CAPS_WindV_IsbL-0970_RLatLon0.03_PT002H.grib2 2026-05-03 06:06 1.4M
20260503T00Z_MSC_CAPS_WindV_IsbL-0985_RLatLon0.03_PT002H.grib2 2026-05-03 06:06 1.4M
20260503T00Z_MSC_CAPS_WindV_IsbL-1000_RLatLon0.03_PT002H.grib2 2026-05-03 06:06 1.8M
20260503T00Z_MSC_CAPS_WindV_IsbL-1015_RLatLon0.03_PT002H.grib2 2026-05-03 06:06 1.8M